Olathe New Century, KS

6:19 PM CST on January 19, 2018 (GMT -0600)
New Century Aircenter

Weather History for KIXD - November, 2013

Change the Weather History Date:

Sunday, November 3, 2013

  Actual Average Record
Temperature  
Mean Temperature 46 °F -  
Max Temperature 60 °F 56 °F 75 °F (2003)
Min Temperature 34 °F 38 °F 26 °F (2006)
Degree Days  
Heating Degree Days 20    
Moisture  
Dew Point 34 °F    
Average Humidity 62    
Maximum Humidity 85    
Minimum Humidity 41    
Precipitation  
Precipitation 0.00 in - - ()
Sea Level Pressure  
Sea Level Pressure 30.06 in    
Wind  
Wind Speed 12 mph (SSE)    
Max Wind Speed 24 mph    
Max Gust Speed 36 mph    
Visibility 10 miles    
Events Rain    
Averages and records for this station are not official NWS values.
T = Trace of Precipitation, MM = Missing Value Source: NWS Daily Summary

Daily Weather History Graph

Daily Weather History Graph

Search for Another Location

Airport or City:

Trip Planner

Search our weather history database for the weather conditions in past years. The results will help you decide how hot, cold, wet, or windy it might be!

Date:

Astronomy

Nov. 03, 2013 Rise Set
Actual Time 6:49 AM CST 5:16 PM CST
Civil Twilight 6:21 AM CST 5:44 PM CST
Nautical Twilight 5:49 AM CST 6:15 PM CST
Astronomical Twilight 5:18 AM CST 6:46 PM CST
Moon 6:53 AM CST (11/3) 5:32 PM CST (11/3)
Length of Visible Light 11h 22m
Length of Day
10h 27m
New Moon, 0% of the Moon is Illuminated
Nov 3
New Moon
Nov 9
First Quarter
Nov 17
Full
Nov 25
Last Quarter
Dec 2
New

Hourly Weather History & Observations

Time (CST) Temp. Windchill Dew Point Humidity Pressure Visibility Wind Dir Wind Speed Gust Speed Precip Events Conditions
12:53 AM 37.0 °F 33.3 °F 30.9 °F 79% 30.19 in 10.0 mi SSE 4.6 mph - N/A   Clear
1:53 AM 34.0 °F 28.8 °F 30.0 °F 85% 30.19 in 10.0 mi SSE 5.8 mph - N/A   Clear
1:53 AM 36.0 °F 30.3 °F 30.9 °F 82% 30.17 in 10.0 mi SSE 6.9 mph - N/A   Clear
2:53 AM 34.0 °F 28.8 °F 30.0 °F 85% 30.18 in 10.0 mi South 5.8 mph - N/A   Clear
3:53 AM 36.0 °F 30.3 °F 30.0 °F 79% 30.17 in 10.0 mi SSE 6.9 mph - N/A   Clear
4:53 AM 37.9 °F 32.1 °F 32.0 °F 79% 30.16 in 10.0 mi SSE 8.1 mph - N/A   Clear
5:53 AM 35.1 °F 29.3 °F 30.9 °F 85% 30.17 in 10.0 mi SSE 6.9 mph - N/A   Clear
6:53 AM 36.0 °F 28.5 °F 30.9 °F 82% 30.15 in 10.0 mi SSE 10.4 mph - N/A   Clear
7:53 AM 41.0 °F 33.9 °F 34.0 °F 76% 30.16 in 10.0 mi SSE 12.7 mph - N/A   Clear
8:53 AM 46.9 °F - 35.1 °F 63% 30.15 in 10.0 mi SSE 18.4 mph 24.2 mph 0.00 in Rain Light Rain
9:53 AM 51.1 °F - 35.1 °F 54% 30.13 in 10.0 mi South 23.0 mph 29.9 mph 0.00 in   Clear
10:53 AM 54.0 °F - 36.0 °F 51% 30.11 in 10.0 mi SSE 23.0 mph 28.8 mph N/A   Clear
11:53 AM 54.0 °F - 34.0 °F 47% 30.07 in 10.0 mi SSE 21.9 mph 26.5 mph N/A   Clear
12:53 PM 57.0 °F - 35.1 °F 44% 30.04 in 10.0 mi SSE 17.3 mph 26.5 mph N/A   Clear
1:53 PM 57.9 °F - 34.0 °F 41% 30.01 in 10.0 mi South 18.4 mph 28.8 mph N/A   Clear
2:53 PM 57.9 °F - 35.1 °F 42% 29.98 in 10.0 mi SSE 16.1 mph 25.3 mph N/A   Clear
3:53 PM 57.9 °F - 34.0 °F 41% 29.94 in 10.0 mi SE 19.6 mph 33.4 mph N/A   Clear
4:53 PM 55.9 °F - 35.1 °F 45% 29.94 in 10.0 mi SSE 16.1 mph - N/A   Clear
5:53 PM 55.9 °F - 37.0 °F 49% 29.95 in 10.0 mi SE 19.6 mph 24.2 mph N/A   Clear
6:53 PM 55.0 °F - 37.0 °F 51% 29.95 in 10.0 mi SSE 15.0 mph 23.0 mph N/A   Clear
7:53 PM 54.0 °F - 37.0 °F 53% 29.93 in 10.0 mi SSE 16.1 mph 26.5 mph N/A   Clear
8:53 PM 53.1 °F - 37.0 °F 55% 29.92 in 10.0 mi SSE 19.6 mph 31.1 mph N/A   Clear
9:53 PM 54.0 °F - 37.0 °F 53% 29.92 in 10.0 mi South 20.7 mph 32.2 mph N/A   Clear
10:53 PM 54.0 °F - 37.9 °F 55% 29.91 in 10.0 mi South 24.2 mph 35.7 mph N/A   Scattered Clouds